Back to catalog

STARLINK-5188

AliveCommunicationsVLEO
NORAD 54096·PAYLOAD·🇺🇸 United States

Launched Oct 20, 2022 from Cape Canaveral Space Force Station

Loading…

Next Passes (next 24 hours)

TLE

FreshSource: CelesTrak SupGP

Epoch: Sep 14, 2026, 14:45 UTC

1 54096C 22136AX  26257.61506944  .00459410  00000+0  21606-1 0  2570
2 54096  53.1607 204.7944 0001256  88.0798 273.4216 15.18828717    16

Track STARLINK-5188 in real time with AllMySat

Download on the App Store